Location: Dodgeville, WI 53533, USA
(43.0344°N, 90.0900°W)
Time: 05:04:59
(UTC-06:00)

X-37B - Pass Details

Date: 30 January 2021
Orbit: 383 x 391 km, 45.0° (Epoch: 27 February)

Event Time Altitude Azimuth Distance (km) Brightness Sun altitude
Rises 19:09:29 0° 281° (W) 2,273 5.8 -21.8°
Reaches altitude 10° 19:11:54 10° 263° (W) 1,416 4.6 -22.3°
Maximum altitude 19:14:19 20° 214° (SW) 965 2.9 -22.7°
Enters shadow 19:14:48 19° 201° (SSW) 986 2.8 -22.8°
